TimeEST,TemperatureF,Dew PointF,Humidity,Sea Level PressureIn,VisibilityMPH,Wind Direction,Wind SpeedMPH,Gust SpeedMPH,PrecipitationIn,Events,Conditions,WindDirDegrees,DateUTC
1:57 AM,28.0,9.0,45,30.30,10.0,North,5.8,-,N/A,,Clear,10,2013-01-23 06:57:00
2:57 AM,28.0,8.1,43,30.32,10.0,North,4.6,-,N/A,,Clear,360,2013-01-23 07:57:00
3:57 AM,27.0,10.9,51,30.32,10.0,North,4.6,-,N/A,,Clear,360,2013-01-23 08:57:00
4:57 AM,26.1,10.9,53,30.33,10.0,North,3.5,-,N/A,,Clear,360,2013-01-23 09:57:00
5:57 AM,25.0,9.0,51,30.35,10.0,North,3.5,-,N/A,,Clear,10,2013-01-23 10:57:00
6:57 AM,25.0,5.0,43,30.37,10.0,North,3.5,-,N/A,,Clear,360,2013-01-23 11:57:00
7:57 AM,26.1,8.1,47,30.39,10.0,North,3.5,-,N/A,,Clear,350,2013-01-23 12:57:00
8:57 AM,30.0,3.9,33,30.40,10.0,North,4.6,-,N/A,,Clear,10,2013-01-23 13:57:00
9:57 AM,34.0,1.0,25,30.41,10.0,North,13.8,19.6,N/A,,Partly Cloudy,10,2013-01-23 14:57:00
10:57 AM,36.0,-0.0,22,30.40,10.0,NNW,8.1,-,N/A,,Partly Cloudy,330,2013-01-23 15:57:00
11:57 AM,37.0,-0.9,20,30.37,10.0,NNW,6.9,16.1,N/A,,Partly Cloudy,340,2013-01-23 16:57:00
12:57 PM,39.0,1.0,20,30.33,10.0,Variable,5.8,-,N/A,,Clear,0,2013-01-23 17:57:00
1:57 PM,39.0,3.9,23,30.31,10.0,NNW,8.1,-,N/A,,Clear,340,2013-01-23 18:57:00
2:57 PM,39.9,5.0,23,30.29,10.0,WSW,3.5,-,N/A,,Clear,240,2013-01-23 19:57:00
3:57 PM,41.0,7.0,25,30.29,10.0,Variable,5.8,-,N/A,,Clear,0,2013-01-23 20:57:00
4:57 PM,39.9,8.1,27,30.27,8.0,Calm,Calm,-,N/A,,Scattered Clouds,0,2013-01-23 21:57:00
5:57 PM,33.1,14.0,46,30.28,6.0,Calm,Calm,-,N/A,,Haze,0,2013-01-23 22:57:00
6:57 PM,32.0,16.0,52,30.28,10.0,Calm,Calm,-,N/A,,Clear,0,2013-01-23 23:57:00
7:57 PM,30.0,17.1,59,30.26,10.0,Calm,Calm,-,N/A,,Clear,0,2013-01-24 00:57:00
8:57 PM,39.0,21.0,49,30.23,10.0,SW,9.2,-,N/A,,Clear,220,2013-01-24 01:57:00
9:57 PM,39.9,24.1,53,30.23,10.0,SW,6.9,-,N/A,,Clear,220,2013-01-24 02:57:00
10:57 PM,42.1,25.0,51,30.19,10.0,SW,8.1,-,N/A,,Clear,220,2013-01-24 03:57:00
11:57 PM,44.1,28.0,53,30.15,10.0,SW,9.2,-,N/A,,Clear,220,2013-01-24 04:57:00